SCP
0 0 0 0 0 0 0 0 0 0 0 0 0 0 0 0 0 0 0 0 0 0 0 0 0 -0 0 0 0 0 0 0 -0 0 0 0 0 0 0 0 0 0 -0 -0 -0
0 0 0 0 0 0 0 0 0 0 0 0 0 0 0 0 0 0 0 0 0 0 0 0 0 0 0 0 -0 0 0 -0 0 0 0 0 -0 0 0 0 0 0 -0 -0 -0
0 0 0 0 0 0 0 0 0 0 0 0 0 0 0 0 0 0 0 0 0 0 0 0 0 0 0 0 0 0 0 0 0 0 0 -0 -0 -0 -0 0 0 -0 -0 -0 -0
0 0 0 0 0 0 0 0 0 0 0 0 0 0 0 0 0 0 0 0 0 0 0 0 0 0 0 0 0 0 0 0 0 0 0 0 -0 -0 -0 0 0 -0 -0 -0 -0
0 0 0 0 0 0 0 0 0 0 0 0 0 0 0 0 0 0 0 0 0 0 0 0 0 0 0 0 0 0 0 0 -0 -0 0 0 0 -0 -0 0 0 -0 -0 -0 -0
0 0 0 0 0 -0 0 0 0 0 0 0 0 0 0 0 0 0 0 0 0 0 0 0 0 0 0 0 0 0 0 0 0 -0 0 0 0 0 0 0 0 -0 -0 -0 -0
0 0 0 0 0 0 0 0 0 0 0 0 0 0 0 0 0 0 0 0 0 0 0 0 0 0 0 0 0 0 0 0 0 0 -0 0 -0 0 0 0 0 -0 -0 -0 -0
0 0 0 -0 0 0 0 0 0 0 0 0 0 0 0 0 0 0 0 0 0 0 0 0 0 0 0 0 0 0 0 0 0 0 0 -0 0 0 -0 0 -0 -0 -0 -0 -0
0 0 0 0 0 0 0 0 0 0 0 0 0 0 0 0 0 0 0 0 0 0 0 0 0 0 0 0 0 0 0 0 0 0 0 -0 0 0 0 -0 -0 0 0 0 0
0 0 0 0 0 0 0 0 0 0 0 0 0 0 0 0 0 0 0 0 0 0 0 0 0 0 0 0 0 0 0 0 0 0 0 0 0 0 0 0 0 0 0 -0 0
-0 -0 -0 0 0 0 0 0 0 0 0 0 0 0 0 0 0 0 0 0 0 0 0 0 0 0 0 0 0 0 0 0 0 0 0 0 0 0 0 -0 0 0 -0 -0 -0
0 -0 -0 0 0 0 0 0 0 0 0 0 0 0 0 0 0 0 0 0 0 0 0 0 0 0 0 0 0 0 0 0 0 0 0 0 0 0 0 0 -0 -0 -0 -0 -0
0 0 -0 0 0 0 0 0 0 0 0 0 0 0 0 0 0 0 0 0 0 0 0 0 0 0 0 0 0 0 0 0 0 0 0 0 0 0 0 0 0 0 0 -0 -0
0 -0 -0 0 0 0 0 0 0 0 0 0 0 0 0 0 0 0 -0 0 0 0 0 0 0 0 0 0 0 0 0 0 0 0 0 0 0 0 0 0 0 0 -0 0 0
0 -0 -0 0 0 0 0 0 0 0 0 0 0 0 0 0 0 0 0 0 0 0 0 0 0 0 0 0 0 0 0 0 0 0 0 0 0 0 0 0 0 0 0 0 0
0 0 0 0 0 -0 0 0 0 0 0 0 0 0 0 0 0 0 0 0 0 0 0 0 0 0 0 0 0 0 0 0 0 0 0 0 0 0 0 0 0 0 0 0 0
0 0 0 0 0 -0 -0 0 0 0 0 0 0 0 0 0 0 0 0 0 0 0 0 0 0 0 0 0 0 0 0 0 0 0 0 0 0 0 0 0 0 0 0 -0 0
-0 0 0 0 0 -0 -0 0 0 0 0 0 0 0 0 0 0 0 0 0 0 0 0 0 0 0 0 0 0 0 0 0 0 0 0 0 0 0 0 0 0 0 0 0 -0
-0 0 0 0 0 -0 -0 0 0 0 0 0 0 0 0 0 0 0 0 0 0 0 0 0 0 0 0 0 0 0 0 0 0 0 0 0 0 0 0 0 0 0 0 0 0
0 0 -0 0 0 -0 -0 0 0 0 0 0 0 0 0 0 0 0 0 0 0 0 0 0 0 0 0 0 0 0 0 0 0 0 0 0 0 0 0 0 0 0 0 0 0
0 0 0 0 0 0 -0 0 0 0 0 0 0 0 0 0 0 0 0 0 0 0 0 0 0 0 0 0 0 0 0 0 0 0 0 0 0 0 0 0 0 0 0 0 0
0 0 0 0 0 -0 0 0 0 -0 0 0 0 0 0 0 0 0 0 0 0 0 0 0 0 0 0 0 0 0 0 0 0 0 0 0 0 0 0 0 0 0 0 0 0
0 0 0 0 0 0 -0 -0 0 0 0 0 0 0 0 0 0 0 0 0 0 0 0 0 0 0 0 0 0 0 0 0 0 0 0 0 0 0 0 0 0 0 0 0 0
0 0 0 -0 0 -0 0 -0 0 0 0 0 0 0 0 0 0 0 0 0 0 0 0 0 0 0 0 0 0 0 0 0 0 0 0 0 0 0 0 0 0 0 0 0 0
0 0 0 -0 -0 -0 0 -0 -0 -0 0 0 0 0 0 0 0 0 0 0 0 0 0 0 0 0 0 0 0 0 0 0 0 0 0 0 0 0 0 0 0 0 0 0 0
0 0 0 0 -0 -0 -0 -0 -0 -0 0 -0 0 0 0 0 0 0 0 0 0 0 0 0 0 0 0 0 0 0 0 0 0 0 0 0 0 0 0 0 0 0 0 0 0
0 0 0 0 0 0 -0 -0 -0 -0 -0 -0 0 0 0 0 0 0 0 0 0 0 0 0 0 0 0 0 0 0 0 0 0 0 0 0 0 0 0 0 0 0 0 0 0
Wind_Speed_500mb
34 33 32 29 28 27 25 27 27 25 19 15 17 15 13 15 19 22 23 15 31 44 43 44 36 33 27 14 6 3 2 7 7 8 3 22 12 10 12 19 4 6 26 42 59
35 35 34 32 30 28 25 24 25 25 22 18 15 16 14 13 18 24 13 20 33 50 55 52 41 36 12 10 5 6 5 3 1 4 6 15 24 23 12 19 12 32 39 59 66
36 37 36 35 33 31 28 26 24 23 22 18 19 11 13 12 12 5 9 27 41 51 53 48 40 22 12 11 10 7 3 3 2 1 13 15 20 16 23 11 19 41 58 61 67
36 36 35 36 34 32 30 27 24 23 18 17 16 12 7 5 3 3 11 32 48 53 52 47 36 17 13 14 17 6 14 8 5 4 5 12 22 13 6 4 18 44 64 66 65
36 38 37 36 34 32 30 27 24 22 18 13 10 9 7 6 6 2 19 40 50 52 53 40 40 16 11 11 16 15 7 8 13 11 4 14 14 8 15 20 36 52 61 60 56
39 37 36 35 35 32 30 27 23 19 17 11 6 6 10 5 11 11 25 43 44 54 55 38 26 15 15 12 13 15 21 22 15 19 13 12 11 11 21 35 43 59 59 59 56
39 36 35 35 35 35 32 27 22 18 15 13 7 7 12 6 20 22 30 39 39 47 50 37 16 10 12 10 5 6 8 3 11 17 10 18 9 8 35 41 45 54 54 54 51
39 38 38 37 37 35 31 27 18 15 14 11 8 10 6 17 26 30 28 34 32 36 32 36 12 15 2 4 4 7 5 6 7 20 10 14 5 22 39 48 47 50 51 51 51
42 42 41 39 38 35 26 19 9 9 12 10 8 8 10 20 28 36 33 26 29 27 18 27 18 11 6 6 10 3 12 9 9 5 12 11 5 18 28 35 44 46 51 51 50
45 43 41 38 36 28 10 4 7 15 16 11 7 5 16 13 25 36 36 21 26 33 17 15 11 11 7 13 19 17 11 7 11 19 8 18 15 12 25 31 38 46 47 53 49
45 43 39 35 30 7 11 15 8 3 16 11 7 4 18 17 23 26 46 24 28 21 12 19 15 27 26 13 4 12 13 17 6 6 8 14 14 11 27 30 35 45 51 51 56
42 38 33 25 11 19 15 5 5 4 10 17 26 28 18 16 17 28 49 18 23 23 19 14 25 20 18 13 9 14 14 11 3 5 7 2 2 5 15 28 40 49 50 51 50
37 31 22 12 15 12 17 18 15 1 3 4 10 16 9 26 20 29 54 19 28 21 20 21 11 22 20 17 17 11 16 10 6 1 5 1 7 4 4 15 28 43 43 48 51
31 24 12 8 10 8 9 21 15 3 2 3 5 9 16 18 11 33 45 21 9 25 22 13 13 27 21 20 19 19 14 10 7 4 9 6 10 3 3 17 25 39 48 50 53
28 22 9 7 8 7 13 20 9 6 4 5 8 11 16 8 30 10 33 14 23 18 10 10 23 30 25 23 18 7 14 15 7 5 5 6 8 7 5 8 21 31 43 56 57
32 30 13 5 4 12 19 19 3 5 5 4 4 9 12 5 6 14 8 11 10 16 3 6 5 11 21 14 24 21 15 13 9 5 12 8 7 11 13 25 27 21 42 46 55
28 27 18 11 11 18 20 1 4 4 10 13 7 5 16 11 13 9 10 12 3 23 21 7 5 4 6 17 12 15 18 10 12 11 11 3 8 11 18 28 31 19 25 45 49
18 20 23 16 14 14 8 1 8 5 8 8 8 16 11 6 12 11 11 9 21 8 8 10 13 10 14 4 11 28 25 9 16 18 16 5 16 9 17 32 41 39 14 14 41
14 19 39 25 18 8 9 10 6 7 11 14 3 10 7 9 9 10 14 8 12 20 2 9 9 6 16 14 5 11 16 3 10 3 16 11 11 11 26 34 47 44 38 29 7
15 9 44 28 22 11 10 7 4 15 13 5 4 5 8 8 8 8 11 10 11 16 6 4 11 11 9 3 23 4 9 12 4 15 19 11 10 6 24 29 32 41 44 38 30
12 3 37 20 17 23 8 7 7 24 14 12 6 8 12 7 14 8 9 8 15 13 12 5 2 6 3 17 13 3 6 7 4 4 11 16 9 9 13 18 24 34 40 45 42
16 5 36 16 14 8 8 7 11 29 28 16 12 17 10 12 12 9 8 11 30 10 7 8 8 10 10 4 8 12 6 1 15 12 4 1 11 14 14 22 27 32 39 39 44
9 20 34 10 8 7 6 8 19 23 19 15 18 16 12 8 10 10 7 12 28 13 7 5 6 10 3 4 3 7 9 6 4 1 8 13 12 15 21 27 29 32 40 45 46
7 5 22 40 16 7 5 10 7 19 21 19 13 8 6 13 16 9 8 12 18 17 21 5 7 5 2 8 5 6 3 7 6 6 14 4 22 15 22 24 30 35 37 41 51
13 7 7 7 17 15 6 6 13 10 12 25 15 20 8 8 8 9 6 6 18 24 10 7 8 10 14 11 5 3 4 5 5 6 4 16 10 14 17 20 25 25 30 40 50
9 6 14 8 5 12 10 8 15 8 10 14 15 21 21 11 8 7 6 5 5 12 7 7 8 10 7 6 5 4 6 9 9 4 6 5 2 12 7 15 24 31 30 36 41
17 16 10 8 4 4 5 3 5 5 15 16 9 12 18 13 8 9 12 12 7 5 6 5 9 4 8 5 2 7 1 6 2 4 5 7 7 18 11 20 27 22 25 30 36
Wind_Direction_500mb
343 342 340 338 334 332 329 327 325 324 323 320 312 295 284 279 274 268 261 231 191 176 169 164 162 157 158 163 167 224 257 122 136 168 149 150 149 117 120 132 151 151 145 159 155
338 338 337 334 331 328 325 320 319 319 320 316 315 301 284 284 281 271 243 202 187 180 175 172 157 153 136 171 196 225 234 137 207 188 198 186 159 142 150 129 91 105 127 149 155
333 331 330 329 328 325 321 317 312 311 315 314 312 298 288 293 296 207 224 195 182 179 179 175 162 148 143 165 188 202 249 204 26 139 135 148 141 152 152 161 173 154 148 154 158
333 330 327 324 323 322 318 313 307 303 305 307 312 289 261 273 165 263 237 182 176 176 172 169 166 156 155 176 192 220 258 260 344 172 137 142 136 143 153 97 163 159 154 156 163
333 329 328 324 322 317 314 309 302 296 292 294 303 279 217 232 250 33 153 168 167 172 179 172 172 164 168 172 169 234 248 242 245 240 237 146 129 130 122 124 138 148 155 160 167
333 333 330 327 324 319 312 308 297 286 279 270 274 252 206 213 169 149 153 160 168 166 172 172 177 173 165 175 202 210 247 266 288 227 201 184 147 166 155 143 148 156 164 167 174
339 339 336 331 324 321 316 305 290 275 258 255 229 215 213 144 152 153 166 166 165 173 171 170 161 170 152 161 208 247 272 180 35 189 175 166 160 196 153 156 160 167 170 174 177
342 339 335 331 324 323 321 305 283 256 230 239 211 179 180 176 161 160 165 178 177 182 186 187 170 188 237 307 162 205 238 185 86 159 164 202 99 170 165 161 170 173 175 175 178
338 336 332 329 324 326 324 312 284 212 207 200 192 169 135 178 169 167 168 176 174 182 172 187 173 186 192 203 157 171 183 146 139 145 154 218 52 151 163 171 173 177 179 181 183
335 333 331 330 326 331 334 53 116 158 164 170 218 227 171 176 181 180 175 165 158 149 126 143 167 186 168 192 182 166 162 126 148 192 223 202 244 142 165 177 183 181 182 189 192
332 333 333 332 333 349 144 119 108 123 202 195 282 300 138 138 170 188 184 158 152 153 158 164 188 196 185 186 120 138 143 131 115 157 233 233 272 228 179 177 182 186 187 188 196
334 336 338 343 41 85 110 90 26 266 285 247 248 257 229 152 136 156 174 161 164 167 141 159 210 185 184 196 188 154 151 153 129 122 240 359 23 5 200 197 187 186 190 192 193
339 342 353 28 108 108 66 27 354 162 246 292 235 242 208 158 145 162 167 162 170 165 180 188 196 173 186 185 188 184 181 175 145 139 119 349 161 255 180 206 196 195 197 199 196
350 359 25 100 91 109 40 3 355 223 297 114 210 208 170 147 102 167 179 159 160 177 178 204 188 175 182 183 192 200 191 167 157 195 181 330 200 124 217 206 199 200 201 203 202
14 16 38 133 92 62 340 340 330 311 173 14 134 161 165 170 135 121 182 190 171 157 185 155 175 182 188 194 189 195 165 184 174 168 233 139 235 87 24 252 223 210 209 208 208
30 31 44 97 35 339 328 318 232 259 81 56 74 157 149 86 67 114 114 115 113 148 239 113 103 191 207 181 187 144 107 81 89 167 199 149 250 51 12 338 313 256 215 208 209
28 26 31 25 330 321 321 288 205 41 334 2 20 59 95 32 61 61 45 47 92 166 174 123 62 48 28 162 156 176 171 150 176 193 188 181 204 53 12 6 350 291 240 219 212
20 28 13 0 339 323 337 70 73 5 360 345 357 79 84 20 52 47 85 59 33 0 128 162 157 17 358 25 189 190 200 205 185 187 164 148 166 73 26 22 28 37 16 251 227
339 338 14 11 2 355 97 58 23 337 325 323 321 98 88 59 109 90 59 57 21 2 175 137 116 338 42 28 320 148 200 53 112 86 178 150 108 193 22 25 25 26 30 28 326
329 354 12 6 17 70 73 92 38 1 328 298 92 5 108 28 101 76 32 23 1 10 311 116 130 21 9 320 49 4 115 172 205 164 179 134 124 69 8 9 12 17 16 12 4
355 40 358 8 35 60 68 55 11 1 15 22 42 85 70 81 61 72 20 64 5 336 36 19 325 60 31 29 3 39 123 64 112 320 182 168 123 39 34 30 18 20 19 18 13
38 50 349 28 47 40 54 11 12 360 13 40 59 58 59 45 65 89 93 17 346 342 44 22 74 66 96 12 340 48 80 346 215 182 72 359 118 54 49 41 36 27 22 18 19
75 43 16 89 83 70 67 63 48 27 26 20 37 40 55 61 105 83 83 21 19 45 33 7 50 123 144 225 130 46 38 71 89 58 173 197 134 77 59 47 32 27 24 26 25
60 52 30 58 61 75 85 33 76 45 47 61 36 60 87 53 44 109 93 26 17 37 40 75 80 359 153 73 87 141 46 34 5 210 150 84 138 67 44 41 27 18 24 30 29
52 66 46 23 38 59 67 39 55 37 47 31 39 36 47 91 68 78 58 37 39 9 36 38 96 94 72 80 91 164 238 337 353 66 311 133 120 59 39 34 30 25 28 30 25
76 118 79 63 22 54 29 34 64 70 32 45 91 55 63 84 49 125 126 51 22 1 52 8 112 129 83 61 17 264 253 293 291 294 243 232 222 26 37 32 28 26 31 26 20
66 86 99 20 43 71 42 82 43 101 64 70 101 97 69 69 88 85 82 88 82 17 55 48 129 130 148 14 182 226 196 221 266 43 338 242 54 356 11 5 1 14 26 20 12
Wind_Speed_850mb
34 33 32 29 28 27 25 27 27 25 19 15 17 15 13 15 19 22 23 15 31 44 43 44 36 33 27 14 6 3 2 7 7 8 3 22 12 10 12 19 4 6 26 42 59
35 35 34 32 30 28 25 24 25 25 22 18 15 16 14 13 18 24 13 20 33 50 55 52 41 36 12 10 5 6 5 3 1 4 6 15 24 23 12 19 12 32 39 59 66
36 37 36 35 33 31 28 26 24 23 22 18 19 11 13 12 12 5 9 27 41 51 53 48 40 22 12 11 10 7 3 3 2 1 13 15 20 16 23 11 19 41 58 61 67
36 36 35 36 34 32 30 27 24 23 18 17 16 12 7 5 3 3 11 32 48 53 52 47 36 17 13 14 17 6 14 8 5 4 5 12 22 13 6 4 18 44 64 66 65
36 38 37 36 34 32 30 27 24 22 18 13 10 9 7 6 6 2 19 40 50 52 53 40 40 16 11 11 16 15 7 8 13 11 4 14 14 8 15 20 36 52 61 60 56
39 37 36 35 35 32 30 27 23 19 17 11 6 6 10 5 11 11 25 43 44 54 55 38 26 15 15 12 13 15 21 22 15 19 13 12 11 11 21 35 43 59 59 59 56
39 36 35 35 35 35 32 27 22 18 15 13 7 7 12 6 20 22 30 39 39 47 50 37 16 10 12 10 5 6 8 3 11 17 10 18 9 8 35 41 45 54 54 54 51
39 38 38 37 37 35 31 27 18 15 14 11 8 10 6 17 26 30 28 34 32 36 32 36 12 15 2 4 4 7 5 6 7 20 10 14 5 22 39 48 47 50 51 51 51
42 42 41 39 38 35 26 19 9 9 12 10 8 8 10 20 28 36 33 26 29 27 18 27 18 11 6 6 10 3 12 9 9 5 12 11 5 18 28 35 44 46 51 51 50
45 43 41 38 36 28 10 4 7 15 16 11 7 5 16 13 25 36 36 21 26 33 17 15 11 11 7 13 19 17 11 7 11 19 8 18 15 12 25 31 38 46 47 53 49
45 43 39 35 30 7 11 15 8 3 16 11 7 4 18 17 23 26 46 24 28 21 12 19 15 27 26 13 4 12 13 17 6 6 8 14 14 11 27 30 35 45 51 51 56
42 38 33 25 11 19 15 5 5 4 10 17 26 28 18 16 17 28 49 18 23 23 19 14 25 20 18 13 9 14 14 11 3 5 7 2 2 5 15 28 40 49 50 51 50
37 31 22 12 15 12 17 18 15 1 3 4 10 16 9 26 20 29 54 19 28 21 20 21 11 22 20 17 17 11 16 10 6 1 5 1 7 4 4 15 28 43 43 48 51
31 24 12 8 10 8 9 21 15 3 2 3 5 9 16 18 11 33 45 21 9 25 22 13 13 27 21 20 19 19 14 10 7 4 9 6 10 3 3 17 25 39 48 50 53
28 22 9 7 8 7 13 20 9 6 4 5 8 11 16 8 30 10 33 14 23 18 10 10 23 30 25 23 18 7 14 15 7 5 5 6 8 7 5 8 21 31 43 56 57
32 30 13 5 4 12 19 19 3 5 5 4 4 9 12 5 6 14 8 11 10 16 3 6 5 11 21 14 24 21 15 13 9 5 12 8 7 11 13 25 27 21 42 46 55
28 27 18 11 11 18 20 1 4 4 10 13 7 5 16 11 13 9 10 12 3 23 21 7 5 4 6 17 12 15 18 10 12 11 11 3 8 11 18 28 31 19 25 45 49
18 20 23 16 14 14 8 1 8 5 8 8 8 16 11 6 12 11 11 9 21 8 8 10 13 10 14 4 11 28 25 9 16 18 16 5 16 9 17 32 41 39 14 14 41
14 19 39 25 18 8 9 10 6 7 11 14 3 10 7 9 9 10 14 8 12 20 2 9 9 6 16 14 5 11 16 3 10 3 16 11 11 11 26 34 47 44 38 29 7
15 9 44 28 22 11 10 7 4 15 13 5 4 5 8 8 8 8 11 10 11 16 6 4 11 11 9 3 23 4 9 12 4 15 19 11 10 6 24 29 32 41 44 38 30
12 3 37 20 17 23 8 7 7 24 14 12 6 8 12 7 14 8 9 8 15 13 12 5 2 6 3 17 13 3 6 7 4 4 11 16 9 9 13 18 24 34 40 45 42
16 5 36 16 14 8 8 7 11 29 28 16 12 17 10 12 12 9 8 11 30 10 7 8 8 10 10 4 8 12 6 1 15 12 4 1 11 14 14 22 27 32 39 39 44
9 20 34 10 8 7 6 8 19 23 19 15 18 16 12 8 10 10 7 12 28 13 7 5 6 10 3 4 3 7 9 6 4 1 8 13 12 15 21 27 29 32 40 45 46
7 5 22 40 16 7 5 10 7 19 21 19 13 8 6 13 16 9 8 12 18 17 21 5 7 5 2 8 5 6 3 7 6 6 14 4 22 15 22 24 30 35 37 41 51
13 7 7 7 17 15 6 6 13 10 12 25 15 20 8 8 8 9 6 6 18 24 10 7 8 10 14 11 5 3 4 5 5 6 4 16 10 14 17 20 25 25 30 40 50
9 6 14 8 5 12 10 8 15 8 10 14 15 21 21 11 8 7 6 5 5 12 7 7 8 10 7 6 5 4 6 9 9 4 6 5 2 12 7 15 24 31 30 36 41
17 16 10 8 4 4 5 3 5 5 15 16 9 12 18 13 8 9 12 12 7 5 6 5 9 4 8 5 2 7 1 6 2 4 5 7 7 18 11 20 27 22 25 30 36
Wind_Direction_850mb
343 342 340 338 334 332 329 327 325 324 323 320 312 295 284 279 274 268 261 231 191 176 169 164 162 157 158 163 167 224 257 122 136 168 149 150 149 117 120 132 151 151 145 159 155
338 338 337 334 331 328 325 320 319 319 320 316 315 301 284 284 281 271 243 202 187 180 175 172 157 153 136 171 196 225 234 137 207 188 198 186 159 142 150 129 91 105 127 149 155
333 331 330 329 328 325 321 317 312 311 315 314 312 298 288 293 296 207 224 195 182 179 179 175 162 148 143 165 188 202 249 204 26 139 135 148 141 152 152 161 173 154 148 154 158
333 330 327 324 323 322 318 313 307 303 305 307 312 289 261 273 165 263 237 182 176 176 172 169 166 156 155 176 192 220 258 260 344 172 137 142 136 143 153 97 163 159 154 156 163
333 329 328 324 322 317 314 309 302 296 292 294 303 279 217 232 250 33 153 168 167 172 179 172 172 164 168 172 169 234 248 242 245 240 237 146 129 130 122 124 138 148 155 160 167
333 333 330 327 324 319 312 308 297 286 279 270 274 252 206 213 169 149 153 160 168 166 172 172 177 173 165 175 202 210 247 266 288 227 201 184 147 166 155 143 148 156 164 167 174
339 339 336 331 324 321 316 305 290 275 258 255 229 215 213 144 152 153 166 166 165 173 171 170 161 170 152 161 208 247 272 180 35 189 175 166 160 196 153 156 160 167 170 174 177
342 339 335 331 324 323 321 305 283 256 230 239 211 179 180 176 161 160 165 178 177 182 186 187 170 188 237 307 162 205 238 185 86 159 164 202 99 170 165 161 170 173 175 175 178
338 336 332 329 324 326 324 312 284 212 207 200 192 169 135 178 169 167 168 176 174 182 172 187 173 186 192 203 157 171 183 146 139 145 154 218 52 151 163 171 173 177 179 181 183
335 333 331 330 326 331 334 53 116 158 164 170 218 227 171 176 181 180 175 165 158 149 126 143 167 186 168 192 182 166 162 126 148 192 223 202 244 142 165 177 183 181 182 189 192
332 333 333 332 333 349 144 119 108 123 202 195 282 300 138 138 170 188 184 158 152 153 158 164 188 196 185 186 120 138 143 131 115 157 233 233 272 228 179 177 182 186 187 188 196
334 336 338 343 41 85 110 90 26 266 285 247 248 257 229 152 136 156 174 161 164 167 141 159 210 185 184 196 188 154 151 153 129 122 240 359 23 5 200 197 187 186 190 192 193
339 342 353 28 108 108 66 27 354 162 246 292 235 242 208 158 145 162 167 162 170 165 180 188 196 173 186 185 188 184 181 175 145 139 119 349 161 255 180 206 196 195 197 199 196
350 359 25 100 91 109 40 3 355 223 297 114 210 208 170 147 102 167 179 159 160 177 178 204 188 175 182 183 192 200 191 167 157 195 181 330 200 124 217 206 199 200 201 203 202
14 16 38 133 92 62 340 340 330 311 173 14 134 161 165 170 135 121 182 190 171 157 185 155 175 182 188 194 189 195 165 184 174 168 233 139 235 87 24 252 223 210 209 208 208
30 31 44 97 35 339 328 318 232 259 81 56 74 157 149 86 67 114 114 115 113 148 239 113 103 191 207 181 187 144 107 81 89 167 199 149 250 51 12 338 313 256 215 208 209
28 26 31 25 330 321 321 288 205 41 334 2 20 59 95 32 61 61 45 47 92 166 174 123 62 48 28 162 156 176 171 150 176 193 188 181 204 53 12 6 350 291 240 219 212
20 28 13 0 339 323 337 70 73 5 360 345 357 79 84 20 52 47 85 59 33 0 128 162 157 17 358 25 189 190 200 205 185 187 164 148 166 73 26 22 28 37 16 251 227
339 338 14 11 2 355 97 58 23 337 325 323 321 98 88 59 109 90 59 57 21 2 175 137 116 338 42 28 320 148 200 53 112 86 178 150 108 193 22 25 25 26 30 28 326
329 354 12 6 17 70 73 92 38 1 328 298 92 5 108 28 101 76 32 23 1 10 311 116 130 21 9 320 49 4 115 172 205 164 179 134 124 69 8 9 12 17 16 12 4
355 40 358 8 35 60 68 55 11 1 15 22 42 85 70 81 61 72 20 64 5 336 36 19 325 60 31 29 3 39 123 64 112 320 182 168 123 39 34 30 18 20 19 18 13
38 50 349 28 47 40 54 11 12 360 13 40 59 58 59 45 65 89 93 17 346 342 44 22 74 66 96 12 340 48 80 346 215 182 72 359 118 54 49 41 36 27 22 18 19
75 43 16 89 83 70 67 63 48 27 26 20 37 40 55 61 105 83 83 21 19 45 33 7 50 123 144 225 130 46 38 71 89 58 173 197 134 77 59 47 32 27 24 26 25
60 52 30 58 61 75 85 33 76 45 47 61 36 60 87 53 44 109 93 26 17 37 40 75 80 359 153 73 87 141 46 34 5 210 150 84 138 67 44 41 27 18 24 30 29
52 66 46 23 38 59 67 39 55 37 47 31 39 36 47 91 68 78 58 37 39 9 36 38 96 94 72 80 91 164 238 337 353 66 311 133 120 59 39 34 30 25 28 30 25
76 118 79 63 22 54 29 34 64 70 32 45 91 55 63 84 49 125 126 51 22 1 52 8 112 129 83 61 17 264 253 293 291 294 243 232 222 26 37 32 28 26 31 26 20
66 86 99 20 43 71 42 82 43 101 64 70 101 97 69 69 88 85 82 88 82 17 55 48 129 130 148 14 182 226 196 221 266 43 338 242 54 356 11 5 1 14 26 20 12